Time,TemperatureF,DewpointF,PressureIn,WindDirection,WindDirectionDegrees,WindSpeedMPH,WindSpeedGustMPH,Humidity,HourlyPrecipIn,Conditions,Clouds,dailyrainin,SoftwareType,DateUTC
2013-07-28 00:00:00,62.4,58.2,29.64,SW,234,0.0,0.0,86,0.00,,,0.00,Wunderground v.1.15,2013-07-28 04:00:00,
2013-07-28 00:05:00,62.3,58.1,29.65,SW,234,0.0,0.0,86,0.00,,,0.00,Wunderground v.1.15,2013-07-28 04:05:00,
2013-07-28 00:10:00,62.2,58.3,29.64,SW,234,0.0,0.0,87,0.00,,,0.00,Wunderground v.1.15,2013-07-28 04:10:00,
2013-07-28 00:15:00,62.2,58.0,29.64,SW,234,0.0,0.0,86,0.00,,,0.00,Wunderground v.1.15,2013-07-28 04:15:00,
2013-07-28 00:20:00,62.2,58.0,29.65,SW,234,0.0,0.0,86,0.00,,,0.00,Wunderground v.1.15,2013-07-28 04:20:00,
2013-07-28 00:25:00,62.2,58.3,29.64,SW,234,0.0,0.0,87,0.00,,,0.00,Wunderground v.1.15,2013-07-28 04:25:00,
2013-07-28 00:30:00,62.1,57.9,29.64,SW,234,0.0,0.0,86,0.00,,,0.00,Wunderground v.1.15,2013-07-28 04:30:00,
2013-07-28 00:35:00,62.1,58.2,29.64,SW,234,0.0,0.0,87,0.00,,,0.00,Wunderground v.1.15,2013-07-28 04:35:00,
2013-07-28 00:40:00,62.0,58.1,29.64,SW,234,0.0,0.0,87,0.00,,,0.00,Wunderground v.1.15,2013-07-28 04:40:00,
2013-07-28 00:45:00,62.0,58.1,29.64,SW,234,0.0,0.0,87,0.00,,,0.00,Wunderground v.1.15,2013-07-28 04:45:00,
2013-07-28 00:55:00,61.9,58.0,29.65,SW,234,0.0,0.0,87,0.00,,,0.00,Wunderground v.1.15,2013-07-28 04:55:00,
2013-07-28 01:04:00,61.9,58.0,29.65,SW,235,0.0,2.0,87,0.00,,,0.00,Wunderground v.1.15,2013-07-28 05:04:00,
2013-07-28 01:10:00,62.4,58.8,29.65,South,191,1.0,1.0,88,0.00,,,0.00,Wunderground v.1.15,2013-07-28 05:10:00,
2013-07-28 01:20:00,62.2,58.3,29.65,SSW,192,0.0,2.0,87,0.00,,,0.00,Wunderground v.1.15,2013-07-28 05:20:00,
2013-07-28 01:25:00,61.9,58.3,29.65,SSW,192,0.0,2.0,88,0.00,,,0.00,Wunderground v.1.15,2013-07-28 05:25:00,
2013-07-28 01:30:00,61.9,58.3,29.65,SSW,192,1.0,1.0,88,0.00,,,0.00,Wunderground v.1.15,2013-07-28 05:30:00,
2013-07-28 01:35:00,61.6,58.3,29.65,SSW,192,1.0,1.0,89,0.00,,,0.00,Wunderground v.1.15,2013-07-28 05:35:00,
2013-07-28 01:40:00,61.6,58.3,29.65,SSW,192,0.0,0.0,89,0.00,,,0.00,Wunderground v.1.15,2013-07-28 05:40:00,
2013-07-28 01:50:00,61.1,58.1,29.64,SSW,192,0.0,0.0,90,0.00,,,0.00,Wunderground v.1.15,2013-07-28 05:50:00,
2013-07-28 02:00:00,61.4,58.4,29.65,SSW,192,1.0,1.0,90,0.00,,,0.00,Wunderground v.1.15,2013-07-28 06:00:00,
2013-07-28 02:10:00,61.4,58.1,29.64,SSW,192,0.0,0.0,89,0.00,,,0.00,Wunderground v.1.15,2013-07-28 06:10:00,
2013-07-28 02:20:00,61.1,58.1,29.65,SSW,192,0.0,0.0,90,0.00,,,0.00,Wunderground v.1.15,2013-07-28 06:20:00,
2013-07-28 02:30:00,60.6,58.0,29.65,SSW,192,0.0,0.0,91,0.00,,,0.00,Wunderground v.1.15,2013-07-28 06:30:00,
2013-07-28 02:40:00,60.7,58.4,29.65,South,191,1.0,2.0,92,0.00,,,0.00,Wunderground v.1.15,2013-07-28 06:40:00,
2013-07-28 02:50:00,61.0,58.4,29.65,South,191,1.0,1.0,91,0.00,,,0.00,Wunderground v.1.15,2013-07-28 06:50:00,
2013-07-28 03:00:00,61.3,58.7,29.65,South,191,1.0,1.0,91,0.00,,,0.00,Wunderground v.1.15,2013-07-28 07:00:00,
2013-07-28 03:10:00,61.6,58.9,29.65,SSW,194,1.0,1.0,91,0.00,,,0.00,Wunderground v.1.15,2013-07-28 07:10:00,
2013-07-28 03:20:00,61.7,59.0,29.65,SSW,194,1.0,1.0,91,0.00,,,0.00,Wunderground v.1.15,2013-07-28 07:20:00,
2013-07-28 03:29:00,61.8,59.5,29.65,SSW,194,1.0,1.0,92,0.00,,,0.00,Wunderground v.1.15,2013-07-28 07:29:00,
2013-07-28 03:35:00,61.8,59.5,29.65,South,188,2.0,2.0,92,0.00,,,0.00,Wunderground v.1.15,2013-07-28 07:35:00,
2013-07-28 03:45:00,61.7,59.4,29.65,South,188,1.0,1.0,92,0.00,,,0.00,Wunderground v.1.15,2013-07-28 07:45:00,
2013-07-28 03:50:00,61.5,59.2,29.65,South,188,0.0,0.0,92,0.00,,,0.00,Wunderground v.1.15,2013-07-28 07:50:00,
2013-07-28 04:00:00,61.3,59.0,29.65,South,188,0.0,0.0,92,0.00,,,0.00,Wunderground v.1.15,2013-07-28 08:00:00,
2013-07-28 04:10:00,61.3,59.3,29.64,South,188,1.0,2.0,93,0.00,,,0.00,Wunderground v.1.15,2013-07-28 08:10:00,
2013-07-28 04:20:00,61.7,59.7,29.64,South,188,2.0,2.0,93,0.00,,,0.00,Wunderground v.1.15,2013-07-28 08:20:00,
2013-07-28 04:30:00,62.0,59.6,29.64,SW,219,2.0,2.0,92,0.00,,,0.00,Wunderground v.1.15,2013-07-28 08:30:00,
2013-07-28 04:40:00,62.3,59.9,29.64,SSW,202,1.0,1.0,92,0.00,,,0.00,Wunderground v.1.15,2013-07-28 08:40:00,
2013-07-28 04:50:00,62.2,59.5,29.64,SSW,202,0.0,0.0,91,0.00,,,0.00,Wunderground v.1.15,2013-07-28 08:50:00,
2013-07-28 05:00:00,62.0,59.6,29.64,SSW,202,0.0,0.0,92,0.00,,,0.00,Wunderground v.1.15,2013-07-28 09:00:00,
2013-07-28 05:10:00,61.6,59.3,29.65,SSW,202,0.0,0.0,92,0.00,,,0.00,Wunderground v.1.15,2013-07-28 09:10:00,
2013-07-28 05:15:00,61.4,59.1,29.65,SSW,202,0.0,0.0,92,0.00,,,0.00,Wunderground v.1.15,2013-07-28 09:15:00,
2013-07-28 05:20:00,61.2,59.2,29.65,SSW,202,0.0,0.0,93,0.00,,,0.00,Wunderground v.1.15,2013-07-28 09:20:00,
2013-07-28 05:25:00,61.0,59.0,29.65,SSW,202,0.0,0.0,93,0.00,,,0.00,Wunderground v.1.15,2013-07-28 09:25:00,
2013-07-28 05:30:00,60.9,59.2,29.65,SSW,202,0.0,0.0,94,0.00,,,0.00,Wunderground v.1.15,2013-07-28 09:30:00,
2013-07-28 05:35:00,60.7,59.0,29.65,SSW,202,0.0,0.0,94,0.00,,,0.00,Wunderground v.1.15,2013-07-28 09:35:00,
2013-07-28 05:45:00,60.5,58.8,29.65,SSW,202,0.0,0.0,94,0.00,,,0.00,Wunderground v.1.15,2013-07-28 09:45:00,
2013-07-28 05:50:00,60.6,58.9,29.65,SSW,202,0.0,0.0,94,0.00,,,0.00,Wunderground v.1.15,2013-07-28 09:50:00,
2013-07-28 05:55:00,60.6,58.9,29.65,SSW,202,0.0,0.0,94,0.00,,,0.00,Wunderground v.1.15,2013-07-28 09:55:00,
2013-07-28 06:00:00,60.6,58.9,29.65,SSW,202,0.0,0.0,94,0.00,,,0.00,Wunderground v.1.15,2013-07-28 10:00:00,
2013-07-28 06:10:00,60.7,59.0,29.65,SSW,202,0.0,0.0,94,0.00,,,0.00,Wunderground v.1.15,2013-07-28 10:10:00,
2013-07-28 06:20:00,61.4,60.0,29.65,SSW,202,0.0,0.0,95,0.00,,,0.00,Wunderground v.1.15,2013-07-28 10:20:00,
2013-07-28 06:25:00,61.6,60.2,29.65,SSW,202,0.0,0.0,95,0.00,,,0.00,Wunderground v.1.15,2013-07-28 10:25:00,
2013-07-28 06:30:00,61.7,60.0,29.65,SSW,202,0.0,0.0,94,0.00,,,0.00,Wunderground v.1.15,2013-07-28 10:30:00,
2013-07-28 06:40:00,61.7,60.0,29.65,SSW,202,0.0,0.0,94,0.00,,,0.00,Wunderground v.1.15,2013-07-28 10:40:00,
2013-07-28 06:45:00,61.7,60.0,29.65,SSW,202,0.0,0.0,94,0.00,,,0.00,Wunderground v.1.15,2013-07-28 10:45:00,
2013-07-28 06:50:00,62.1,60.4,29.65,SSW,202,0.0,0.0,94,0.00,,,0.00,Wunderground v.1.15,2013-07-28 10:50:00,
2013-07-28 07:00:00,62.5,60.7,29.65,SSW,202,0.0,0.0,94,0.00,,,0.00,Wunderground v.1.15,2013-07-28 11:00:00,
2013-07-28 07:10:00,63.1,61.6,29.65,SSW,202,0.0,0.0,95,0.00,,,0.00,Wunderground v.1.15,2013-07-28 11:10:00,
2013-07-28 07:20:00,62.4,60.3,29.65,SSW,197,2.0,2.0,93,0.00,,,0.00,Wunderground v.1.15,2013-07-28 11:20:00,
2013-07-28 07:30:00,62.2,60.5,29.66,SSW,197,1.0,1.0,94,0.00,,,0.00,Wunderground v.1.15,2013-07-28 11:30:00,
2013-07-28 07:35:00,62.3,60.6,29.66,SSW,197,0.0,1.0,94,0.00,,,0.00,Wunderground v.1.15,2013-07-28 11:35:00,
2013-07-28 07:40:00,62.2,60.2,29.66,SSW,197,0.0,0.0,93,0.00,,,0.00,Wunderground v.1.15,2013-07-28 11:40:00,
2013-07-28 07:50:00,62.5,60.7,29.66,SSW,197,0.0,0.0,94,0.00,,,0.00,Wunderground v.1.15,2013-07-28 11:50:00,
2013-07-28 08:00:00,62.8,60.7,29.66,SSW,197,0.0,0.0,93,0.00,,,0.00,Wunderground v.1.15,2013-07-28 12:00:00,
2013-07-28 08:10:00,63.2,61.1,29.66,SSW,197,0.0,0.0,93,0.00,,,0.00,Wunderground v.1.15,2013-07-28 12:10:00,
2013-07-28 08:15:00,63.3,61.2,29.66,SSW,197,0.0,0.0,93,0.00,,,0.00,Wunderground v.1.15,2013-07-28 12:15:00,
2013-07-28 08:20:00,63.4,61.3,29.66,SSW,197,0.0,0.0,93,0.00,,,0.00,Wunderground v.1.15,2013-07-28 12:20:00,
2013-07-28 08:30:00,63.7,61.6,29.67,SSW,197,0.0,0.0,93,0.00,,,0.00,Wunderground v.1.15,2013-07-28 12:30:00,
2013-07-28 08:35:00,63.8,61.7,29.67,SSW,197,0.0,0.0,93,0.00,,,0.00,Wunderground v.1.15,2013-07-28 12:35:00,
2013-07-28 08:40:00,63.9,61.5,29.66,SSW,197,0.0,0.0,92,0.00,,,0.00,Wunderground v.1.15,2013-07-28 12:40:00,
2013-07-28 08:45:00,64.1,62.0,29.66,SSW,197,0.0,0.0,93,0.00,,,0.00,Wunderground v.1.15,2013-07-28 12:45:00,
2013-07-28 08:55:00,64.4,62.0,29.65,SSW,197,0.0,0.0,92,0.00,,,0.00,Wunderground v.1.15,2013-07-28 12:55:00,
2013-07-28 09:00:00,64.5,62.4,29.65,SSW,197,0.0,0.0,93,0.00,,,0.00,Wunderground v.1.15,2013-07-28 13:00:00,
2013-07-28 09:10:00,65.0,62.0,29.64,SSW,197,0.0,0.0,90,0.00,,,0.00,Wunderground v.1.15,2013-07-28 13:10:00,
2013-07-28 09:20:00,65.5,62.5,29.66,SSW,197,0.0,0.0,90,0.00,,,0.00,Wunderground v.1.15,2013-07-28 13:20:00,
2013-07-28 09:25:00,65.8,62.8,29.65,SSW,197,0.0,0.0,90,0.00,,,0.00,Wunderground v.1.15,2013-07-28 13:25:00,
2013-07-28 09:30:00,66.0,62.7,29.65,SSE,157,0.0,0.0,89,0.00,,,0.00,Wunderground v.1.15,2013-07-28 13:30:00,
2013-07-28 09:35:00,66.0,62.3,29.65,SE,126,1.0,1.0,88,0.00,,,0.00,Wunderground v.1.15,2013-07-28 13:35:00,
2013-07-28 09:40:00,66.2,63.2,29.65,SE,126,1.0,1.0,90,0.00,,,0.00,Wunderground v.1.15,2013-07-28 13:40:00,
2013-07-28 09:50:00,67.4,63.1,29.65,South,169,1.0,1.0,86,0.00,,,0.00,Wunderground v.1.15,2013-07-28 13:50:00,
2013-07-28 10:00:00,68.6,64.9,29.65,South,177,1.0,1.0,88,0.00,,,0.00,Wunderground v.1.15,2013-07-28 14:00:00,
2013-07-28 10:05:00,69.2,65.2,29.65,SE,131,1.0,1.0,87,0.00,,,0.00,Wunderground v.1.15,2013-07-28 14:05:00,
2013-07-28 10:15:00,69.7,64.0,29.65,SSW,205,2.0,3.0,82,0.00,,,0.00,Wunderground v.1.15,2013-07-28 14:15:00,
2013-07-28 10:20:00,69.3,63.2,29.64,South,188,3.0,3.0,81,0.00,,,0.00,Wunderground v.1.15,2013-07-28 14:20:00,
2013-07-28 10:30:00,69.3,63.6,29.65,SE,138,2.0,2.0,82,0.00,,,0.00,Wunderground v.1.15,2013-07-28 14:30:00,
2013-07-28 10:35:00,69.3,63.6,29.65,SSW,212,3.0,3.0,82,0.00,,,0.00,Wunderground v.1.15,2013-07-28 14:35:00,
2013-07-28 10:44:00,69.2,63.1,29.64,SSE,150,3.0,3.0,81,0.00,,,0.00,Wunderground v.1.15,2013-07-28 14:44:00,
2013-07-28 10:50:00,69.6,63.2,29.64,South,178,3.0,3.0,80,0.00,,,0.00,Wunderground v.1.15,2013-07-28 14:50:00,
2013-07-28 11:00:00,69.7,62.9,29.65,SSW,205,4.0,4.0,79,0.00,,,0.00,Wunderground v.1.15,2013-07-28 15:00:00,
2013-07-28 11:10:00,69.7,64.0,29.64,SSE,167,3.0,3.0,82,0.00,,,0.00,Wunderground v.1.15,2013-07-28 15:10:00,
2013-07-28 11:20:00,71.1,65.0,29.64,ESE,107,1.0,2.0,81,0.00,,,0.00,Wunderground v.1.15,2013-07-28 15:20:00,
2013-07-28 11:30:00,72.5,65.6,29.64,ESE,106,2.0,2.0,79,0.00,,,0.00,Wunderground v.1.15,2013-07-28 15:30:00,
2013-07-28 11:40:00,73.2,63.6,29.63,SSW,205,3.0,4.0,72,0.00,,,0.00,Wunderground v.1.15,2013-07-28 15:40:00,
2013-07-28 11:45:00,72.7,62.3,29.63,SSW,194,3.0,4.0,70,0.00,,,0.00,Wunderground v.1.15,2013-07-28 15:45:00,
2013-07-28 11:50:00,72.7,63.5,29.63,SE,146,3.0,3.0,73,0.00,,,0.00,Wunderground v.1.15,2013-07-28 15:50:00,
2013-07-28 12:00:00,72.3,62.4,29.63,South,175,4.0,7.0,71,0.00,,,0.00,Wunderground v.1.15,2013-07-28 16:00:00,
2013-07-28 12:10:00,73.1,64.7,29.63,SSE,150,5.0,5.0,75,0.00,,,0.00,Wunderground v.1.15,2013-07-28 16:10:00,
2013-07-28 12:20:00,74.1,65.3,29.63,South,169,3.0,3.0,74,0.00,,,0.00,Wunderground v.1.15,2013-07-28 16:20:00,
2013-07-28 12:25:00,74.6,66.5,29.63,South,171,3.0,5.0,76,0.00,,,0.00,Wunderground v.1.15,2013-07-28 16:25:00,
2013-07-28 12:30:00,74.8,66.0,29.63,South,177,3.0,3.0,74,0.00,,,0.00,Wunderground v.1.15,2013-07-28 16:30:00,
2013-07-28 12:40:00,74.9,65.7,29.63,SSE,165,2.0,2.0,73,0.00,,,0.00,Wunderground v.1.15,2013-07-28 16:40:00,
2013-07-28 12:50:00,74.4,64.8,29.62,SSE,153,2.0,2.0,72,0.00,,,0.00,Wunderground v.1.15,2013-07-28 16:50:00,
2013-07-28 13:00:00,74.4,65.6,29.63,East,96,0.0,1.0,74,0.00,,,0.00,Wunderground v.1.15,2013-07-28 17:00:00,
2013-07-28 13:10:00,74.6,64.6,29.62,SE,133,3.0,4.0,71,0.00,,,0.00,Wunderground v.1.15,2013-07-28 17:10:00,
2013-07-28 13:20:00,74.3,63.5,29.62,SSE,167,3.0,5.0,69,0.00,,,0.00,Wunderground v.1.15,2013-07-28 17:20:00,
2013-07-28 13:30:00,74.3,63.9,29.62,South,177,4.0,4.0,70,0.00,,,0.00,Wunderground v.1.15,2013-07-28 17:30:00,
2013-07-28 13:35:00,74.2,64.2,29.62,SSE,167,4.0,9.0,71,0.00,,,0.00,Wunderground v.1.15,2013-07-28 17:35:00,
2013-07-28 13:40:00,74.1,63.7,29.62,WSW,238,4.0,8.0,70,0.00,,,0.00,Wunderground v.1.15,2013-07-28 17:40:00,
2013-07-28 13:50:00,73.7,62.9,29.62,South,188,5.0,5.0,69,0.00,,,0.00,Wunderground v.1.15,2013-07-28 17:50:00,
2013-07-28 14:00:00,74.4,64.0,29.62,South,187,3.0,8.0,70,0.00,,,0.00,Wunderground v.1.15,2013-07-28 18:00:00,
2013-07-28 14:10:00,74.0,64.0,29.62,South,185,5.0,5.0,71,0.00,,,0.00,Wunderground v.1.15,2013-07-28 18:10:00,
2013-07-28 14:20:00,74.2,63.8,29.62,SSW,203,5.0,5.0,70,0.00,,,0.00,Wunderground v.1.15,2013-07-28 18:20:00,
2013-07-28 14:30:00,74.1,63.3,29.63,South,190,4.0,4.0,69,0.00,,,0.00,Wunderground v.1.15,2013-07-28 18:30:00,
2013-07-28 14:40:00,74.5,64.1,29.62,SW,221,2.0,3.0,70,0.00,,,0.00,Wunderground v.1.15,2013-07-28 18:40:00,
2013-07-28 14:45:00,74.4,64.4,29.62,SSW,193,3.0,4.0,71,0.00,,,0.00,Wunderground v.1.15,2013-07-28 18:45:00,
2013-07-28 14:50:00,74.4,63.6,29.62,South,184,4.0,5.0,69,0.00,,,0.00,Wunderground v.1.15,2013-07-28 18:50:00,
2013-07-28 15:00:00,74.7,64.7,29.62,SSW,200,4.0,5.0,71,0.00,,,0.00,Wunderground v.1.15,2013-07-28 19:00:00,
2013-07-28 15:05:00,74.7,63.9,29.62,SSE,155,4.0,5.0,69,0.00,,,0.00,Wunderground v.1.15,2013-07-28 19:05:00,
2013-07-28 15:10:00,74.8,65.2,29.62,South,173,3.0,3.0,72,0.00,,,0.00,Wunderground v.1.15,2013-07-28 19:10:00,
2013-07-28 15:20:00,75.1,63.8,29.61,SE,136,3.0,3.0,68,0.00,,,0.00,Wunderground v.1.15,2013-07-28 19:20:00,
2013-07-28 15:30:00,75.4,64.5,29.61,SSW,198,5.0,5.0,69,0.00,,,0.00,Wunderground v.1.15,2013-07-28 19:30:00,
2013-07-28 15:40:00,76.0,65.9,29.61,SSW,207,4.0,7.0,71,0.00,,,0.00,Wunderground v.1.15,2013-07-28 19:40:00,
2013-07-28 15:50:00,75.6,63.9,29.61,SSE,150,4.0,4.0,67,0.00,,,0.00,Wunderground v.1.15,2013-07-28 19:50:00,
2013-07-28 15:55:00,75.3,65.6,29.60,South,169,4.0,4.0,72,0.00,,,0.00,Wunderground v.1.15,2013-07-28 19:55:00,
2013-07-28 16:05:00,74.8,65.2,29.60,South,184,4.0,6.0,72,0.00,,,0.00,Wunderground v.1.15,2013-07-28 20:05:00,
2013-07-28 16:10:00,74.7,65.1,29.60,SSW,212,4.0,4.0,72,0.00,,,0.00,Wunderground v.1.15,2013-07-28 20:10:00,
2013-07-28 16:20:00,74.5,64.9,29.60,South,191,3.0,3.0,72,0.00,,,0.00,Wunderground v.1.15,2013-07-28 20:20:00,
2013-07-28 16:30:00,74.1,65.7,29.60,SSW,206,3.0,3.0,75,0.00,,,0.00,Wunderground v.1.15,2013-07-28 20:30:00,
2013-07-28 16:40:00,73.8,64.2,29.60,SW,224,2.0,2.0,72,0.00,,,0.00,Wunderground v.1.15,2013-07-28 20:40:00,
2013-07-28 16:50:00,73.6,64.8,29.60,SSW,207,3.0,3.0,74,0.00,,,0.00,Wunderground v.1.15,2013-07-28 20:50:00,
2013-07-28 16:55:00,73.7,64.9,29.60,South,188,2.0,4.0,74,0.00,,,0.00,Wunderground v.1.15,2013-07-28 20:55:00,
2013-07-28 17:00:00,73.9,65.5,29.59,South,183,2.0,2.0,75,0.00,,,0.00,Wunderground v.1.15,2013-07-28 21:00:00,
2013-07-28 17:05:00,73.9,65.1,29.59,SSW,197,2.0,4.0,74,0.00,,,0.00,Wunderground v.1.15,2013-07-28 21:05:00,
2013-07-28 17:10:00,74.0,66.0,29.60,WSW,239,3.0,4.0,76,0.00,,,0.00,Wunderground v.1.15,2013-07-28 21:10:00,
2013-07-28 17:15:00,73.9,65.5,29.59,SSE,167,4.0,4.0,75,0.00,,,0.00,Wunderground v.1.15,2013-07-28 21:15:00,
2013-07-28 17:25:00,73.9,65.9,29.59,South,182,3.0,8.0,76,0.00,,,0.00,Wunderground v.1.15,2013-07-28 21:25:00,
2013-07-28 17:35:00,73.9,67.0,29.59,SSE,160,3.0,5.0,79,0.00,,,0.00,Wunderground v.1.15,2013-07-28 21:35:00,
2013-07-28 17:40:00,73.8,66.9,29.59,South,173,3.0,3.0,79,0.00,,,0.00,Wunderground v.1.15,2013-07-28 21:40:00,
2013-07-28 17:45:00,73.8,67.6,29.59,South,178,3.0,3.0,81,0.00,,,0.00,Wunderground v.1.15,2013-07-28 21:45:00,
2013-07-28 17:50:00,73.7,67.5,29.59,East,96,2.0,2.0,81,0.00,,,0.00,Wunderground v.1.15,2013-07-28 21:50:00,
2013-07-28 17:55:00,73.6,67.4,29.59,SSE,155,2.0,2.0,81,0.00,,,0.00,Wunderground v.1.15,2013-07-28 21:55:00,
2013-07-28 18:00:00,73.4,67.2,29.59,SE,125,2.0,2.0,81,0.00,,,0.00,Wunderground v.1.15,2013-07-28 22:00:00,
2013-07-28 18:10:00,72.5,66.3,29.59,SE,145,3.0,4.0,81,0.00,,,0.00,Wunderground v.1.15,2013-07-28 22:10:00,
2013-07-28 18:20:00,71.9,66.1,29.59,SSE,151,2.0,2.0,82,0.00,,,0.00,Wunderground v.1.15,2013-07-28 22:20:00,
2013-07-28 18:30:00,71.6,66.2,29.60,South,174,2.0,9.0,83,0.00,,,0.00,Wunderground v.1.15,2013-07-28 22:30:00,
2013-07-28 18:35:00,71.4,66.0,29.60,SSE,150,3.0,9.0,83,0.00,,,0.00,Wunderground v.1.15,2013-07-28 22:35:00,
2013-07-28 18:40:00,71.2,65.8,29.60,SSW,213,4.0,11.0,83,0.00,,,0.00,Wunderground v.1.15,2013-07-28 22:40:00,
2013-07-28 18:45:00,71.0,65.6,29.60,SSW,207,5.0,11.0,83,0.00,,,0.00,Wunderground v.1.15,2013-07-28 22:45:00,
2013-07-28 18:55:00,70.8,65.4,29.60,South,179,5.0,11.0,83,0.00,,,0.00,Wunderground v.1.15,2013-07-28 22:55:00,
2013-07-28 19:05:00,70.5,65.4,29.61,SSE,155,5.0,5.0,84,0.00,,,0.00,Wunderground v.1.15,2013-07-28 23:05:00,
2013-07-28 19:10:00,70.3,65.2,29.61,South,182,4.0,4.0,84,0.00,,,0.00,Wunderground v.1.15,2013-07-28 23:10:00,
2013-07-28 19:20:00,70.1,65.0,29.61,South,178,5.0,10.0,84,0.00,,,0.00,Wunderground v.1.15,2013-07-28 23:20:00,
2013-07-28 19:30:00,69.9,65.2,29.61,SE,140,5.0,5.0,85,0.00,,,0.00,Wunderground v.1.15,2013-07-28 23:30:00,
2013-07-28 19:40:00,69.7,65.0,29.62,East,93,3.0,3.0,85,0.00,,,0.00,Wunderground v.1.15,2013-07-28 23:40:00,
2013-07-28 19:50:00,69.5,64.8,29.62,South,173,4.0,4.0,85,0.00,,,0.00,Wunderground v.1.15,2013-07-28 23:50:00,
2013-07-28 20:00:00,69.2,64.8,29.61,SSE,153,4.0,4.0,86,0.00,,,0.00,Wunderground v.1.15,2013-07-29 00:00:00,
2013-07-28 20:10:00,68.9,64.9,29.62,South,182,2.0,2.0,87,0.00,,,0.00,Wunderground v.1.15,2013-07-29 00:10:00,
2013-07-28 20:20:00,68.6,64.9,29.62,South,181,2.0,2.0,88,0.00,,,0.00,Wunderground v.1.15,2013-07-29 00:20:00,
2013-07-28 20:30:00,68.5,64.8,29.62,ESE,119,3.0,3.0,88,0.00,,,0.00,Wunderground v.1.15,2013-07-29 00:30:00,
2013-07-28 20:40:00,68.3,64.9,29.62,SSW,197,2.0,2.0,89,0.00,,,0.00,Wunderground v.1.15,2013-07-29 00:40:00,
2013-07-28 20:50:00,67.8,64.8,29.62,SE,131,2.0,2.0,90,0.00,,,0.00,Wunderground v.1.15,2013-07-29 00:50:00,
2013-07-28 21:00:00,67.5,64.8,29.62,South,173,3.0,3.0,91,0.00,,,0.00,Wunderground v.1.15,2013-07-29 01:00:00,
2013-07-28 21:10:00,67.5,64.8,29.63,South,190,4.0,4.0,91,0.00,,,0.00,Wunderground v.1.15,2013-07-29 01:10:00,
2013-07-28 21:20:00,67.4,64.7,29.63,SW,221,3.0,10.0,91,0.00,,,0.00,Wunderground v.1.15,2013-07-29 01:20:00,
2013-07-28 21:25:00,67.4,64.7,29.63,SSW,196,4.0,10.0,91,0.00,,,0.00,Wunderground v.1.15,2013-07-29 01:25:00,
2013-07-28 21:35:00,67.4,64.7,29.63,South,184,3.0,4.0,91,0.00,,,0.00,Wunderground v.1.15,2013-07-29 01:35:00,
2013-07-28 21:45:00,67.2,64.5,29.63,SSE,163,3.0,3.0,91,0.00,,,0.00,Wunderground v.1.15,2013-07-29 01:45:00,
2013-07-28 21:50:00,67.1,64.7,29.63,ESE,109,3.0,3.0,92,0.00,,,0.00,Wunderground v.1.15,2013-07-29 01:50:00,
2013-07-28 22:00:00,66.8,64.4,29.63,SSE,155,3.0,3.0,92,0.00,,,0.00,Wunderground v.1.15,2013-07-29 02:00:00,
2013-07-28 22:10:00,66.7,64.3,29.63,SSW,202,2.0,3.0,92,0.00,,,0.00,Wunderground v.1.15,2013-07-29 02:10:00,
2013-07-28 22:20:00,66.6,64.2,29.63,SW,226,1.0,2.0,92,0.00,,,0.00,Wunderground v.1.15,2013-07-29 02:20:00,
2013-07-28 22:30:00,66.6,64.2,29.63,South,181,2.0,3.0,92,0.00,,,0.00,Wunderground v.1.15,2013-07-29 02:30:00,
2013-07-28 22:40:00,66.7,64.3,29.63,SSW,204,2.0,2.0,92,0.00,,,0.00,Wunderground v.1.15,2013-07-29 02:40:00,
2013-07-28 22:55:00,66.6,64.2,29.62,South,173,1.0,2.0,92,0.00,,,0.00,Wunderground v.1.15,2013-07-29 02:55:00,
2013-07-28 23:00:00,66.6,64.2,29.63,SSW,202,2.0,4.0,92,0.00,,,0.00,Wunderground v.1.15,2013-07-29 03:00:00,
2013-07-28 23:10:00,66.5,64.1,29.63,South,186,2.0,2.0,92,0.00,,,0.00,Wunderground v.1.15,2013-07-29 03:10:00,
2013-07-28 23:20:00,66.5,64.1,29.63,South,186,3.0,3.0,92,0.00,,,0.00,Wunderground v.1.15,2013-07-29 03:20:00,
2013-07-28 23:35:00,66.5,64.1,29.63,South,188,3.0,6.0,92,0.00,,,0.00,Wunderground v.1.15,2013-07-29 03:35:00,
2013-07-28 23:40:00,66.5,64.1,29.63,South,189,3.0,3.0,92,0.00,,,0.00,Wunderground v.1.15,2013-07-29 03:40:00,
2013-07-28 23:50:00,66.4,64.0,29.63,SSW,192,4.0,6.0,92,0.00,,,0.00,Wunderground v.1.15,2013-07-29 03:50:00,
2013-07-28 23:55:00,66.4,64.0,29.63,South,184,5.0,7.0,92,0.00,,,0.00,Wunderground v.1.15,2013-07-29 03:55:00,